BAW52T EGPB-EGPD

Flight info

Callsign BAW52T
Flight time 0h 31m
Altitude 18000
Route WAFIL Y905 ADN
Aircraft A319/M-SDE3FGHIRWY/LB1

Departure

Time 2026-05-06 17:35
Airport Sumburgh Airport (EGPB)

Arrival

Time 2026-05-06 18:06
Airport Aberdeen International Airport (EGPD)
Time Latitude Longitude Altitude Speed Heading
2026-05-06 17:25 59.87763 -1.29121 44 ft 0 kts 90°
2026-05-06 17:29 59.87763 -1.29128 44 ft 3 kts 89°
2026-05-06 17:30 59.87758 -1.29170 42 ft 4 kts 27°
2026-05-06 17:30 59.87742 -1.29169 44 ft 1 kts 323°
2026-05-06 17:32 59.87797 -1.29246 44 ft 19 kts 324°
2026-05-06 17:32 59.87925 -1.29408 44 ft 24 kts 355°
2026-05-06 17:33 59.88081 -1.29248 44 ft 27 kts 32°
2026-05-06 17:33 59.88173 -1.28941 43 ft 29 kts 84°
2026-05-06 17:33 59.88194 -1.28562 47 ft 23 kts 83°
2026-05-06 17:33 59.88196 -1.28296 46 ft 12 kts 78°
2026-05-06 17:34 59.88209 -1.28311 42 ft 3 kts 268°
2026-05-06 17:34 59.88208 -1.28329 42 ft 0 kts 261°
2026-05-06 17:34 59.88203 -1.28411 47 ft 33 kts 265°
2026-05-06 17:35 59.88140 -1.29504 48 ft 122 kts 263°
2026-05-06 17:35 59.88030 -1.31445 462 ft 145 kts 263°
2026-05-06 17:35 59.87840 -1.33422 1329 ft 145 kts 251°
2026-05-06 17:36 59.86477 -1.36655 2199 ft 181 kts 197°
2026-05-06 17:36 59.85136 -1.36653 2547 ft 206 kts 176°
2026-05-06 17:36 59.83630 -1.36573 2994 ft 228 kts 181°
2026-05-06 17:36 59.81959 -1.36615 3583 ft 251 kts 182°
2026-05-06 17:37 59.80180 -1.36678 4567 ft 259 kts 183°
2026-05-06 17:37 59.78388 -1.36725 5633 ft 263 kts 183°
2026-05-06 17:37 59.76525 -1.36750 6709 ft 266 kts 184°
2026-05-06 17:37 59.74683 -1.36764 7691 ft 270 kts 184°
2026-05-06 17:38 59.72786 -1.36770 8680 ft 275 kts 184°
2026-05-06 17:38 59.70858 -1.36768 9662 ft 280 kts 184°
2026-05-06 17:38 59.68878 -1.36763 10360 ft 294 kts 184°
2026-05-06 17:38 59.66749 -1.36762 10707 ft 318 kts 184°
2026-05-06 17:39 59.64456 -1.36751 10985 ft 342 kts 183°
2026-05-06 17:39 59.62021 -1.36733 11451 ft 356 kts 183°
2026-05-06 17:39 59.59520 -1.36709 12152 ft 362 kts 184°
2026-05-06 17:39 59.56987 -1.36681 12897 ft 366 kts 183°
2026-05-06 17:40 59.54430 -1.36766 13656 ft 368 kts 189°
2026-05-06 17:40 59.51875 -1.37350 14347 ft 371 kts 191°
2026-05-06 17:40 59.49304 -1.37969 15059 ft 374 kts 192°
2026-05-06 17:40 59.46716 -1.38596 15782 ft 376 kts 192°
2026-05-06 17:41 59.44107 -1.39234 16505 ft 379 kts 192°
2026-05-06 17:41 59.41482 -1.39865 17232 ft 382 kts 193°
2026-05-06 17:41 59.38836 -1.40489 17851 ft 384 kts 193°
2026-05-06 17:41 59.36180 -1.41111 18022 ft 387 kts 193°
2026-05-06 17:42 59.33447 -1.41764 18051 ft 405 kts 193°
2026-05-06 17:42 59.30601 -1.42455 18012 ft 417 kts 192°
2026-05-06 17:42 59.27710 -1.43146 18052 ft 420 kts 192°
2026-05-06 17:42 59.24808 -1.43827 18046 ft 421 kts 192°
2026-05-06 17:43 59.21898 -1.44500 18050 ft 421 kts 192°
2026-05-06 17:43 59.18988 -1.45174 18049 ft 421 kts 192°
2026-05-06 17:43 59.16082 -1.45848 18048 ft 421 kts 192°
2026-05-06 17:43 59.13176 -1.46521 18049 ft 421 kts 192°
2026-05-06 17:44 59.10265 -1.47200 18052 ft 421 kts 192°
2026-05-06 17:44 59.07361 -1.47883 18049 ft 421 kts 192°
2026-05-06 17:44 59.04453 -1.48564 18050 ft 421 kts 192°
2026-05-06 17:44 59.01544 -1.49249 18016 ft 421 kts 191°
2026-05-06 17:45 58.98632 -1.49937 18028 ft 422 kts 191°
2026-05-06 17:45 58.95719 -1.50621 18033 ft 422 kts 191°
2026-05-06 17:45 58.92804 -1.51299 18038 ft 422 kts 191°
2026-05-06 17:45 58.89883 -1.51969 18050 ft 423 kts 191°
2026-05-06 17:46 58.86962 -1.52637 18038 ft 423 kts 191°
2026-05-06 17:46 58.84044 -1.53303 18044 ft 422 kts 191°
2026-05-06 17:46 58.81126 -1.53971 18047 ft 422 kts 191°
2026-05-06 17:46 58.78206 -1.54643 18047 ft 422 kts 191°
2026-05-06 17:47 58.75292 -1.55313 18051 ft 422 kts 191°
2026-05-06 17:47 58.72373 -1.55982 18050 ft 422 kts 191°
2026-05-06 17:47 58.69459 -1.56648 18051 ft 422 kts 191°
2026-05-06 17:47 58.66536 -1.57313 18055 ft 423 kts 191°
2026-05-06 17:48 58.63616 -1.57974 18050 ft 422 kts 191°
2026-05-06 17:48 58.60696 -1.58637 18051 ft 422 kts 191°
2026-05-06 17:48 58.57818 -1.59293 18050 ft 422 kts 191°
2026-05-06 17:48 58.54863 -1.59962 18051 ft 422 kts 191°
2026-05-06 17:49 58.51987 -1.60609 18050 ft 422 kts 191°
2026-05-06 17:49 58.49035 -1.61274 18048 ft 422 kts 191°
2026-05-06 17:49 58.46159 -1.61923 18019 ft 422 kts 191°
2026-05-06 17:49 58.43248 -1.62577 18024 ft 422 kts 191°
2026-05-06 17:50 58.40332 -1.63229 18028 ft 422 kts 191°
2026-05-06 17:50 58.37420 -1.63874 18032 ft 422 kts 191°
2026-05-06 17:50 58.34506 -1.64518 18034 ft 422 kts 191°
2026-05-06 17:50 58.31591 -1.65166 18037 ft 422 kts 191°
2026-05-06 17:51 58.28675 -1.65820 18041 ft 422 kts 191°
2026-05-06 17:51 58.25759 -1.66477 18045 ft 422 kts 191°
2026-05-06 17:51 58.22843 -1.67131 18048 ft 422 kts 191°
2026-05-06 17:51 58.19928 -1.67782 18049 ft 422 kts 191°
2026-05-06 17:52 58.17014 -1.68429 18021 ft 422 kts 190°
2026-05-06 17:52 58.14098 -1.69075 18024 ft 422 kts 190°
2026-05-06 17:52 58.11183 -1.69715 18024 ft 422 kts 190°
2026-05-06 17:52 58.08268 -1.70355 18029 ft 422 kts 190°
2026-05-06 17:53 58.05352 -1.70995 18035 ft 422 kts 190°
2026-05-06 17:53 58.02437 -1.71637 18028 ft 422 kts 190°
2026-05-06 17:53 57.99523 -1.72280 18025 ft 422 kts 190°
2026-05-06 17:53 57.96618 -1.72920 17977 ft 415 kts 190°
2026-05-06 17:54 57.93774 -1.73536 17096 ft 410 kts 190°
2026-05-06 17:54 57.90954 -1.74147 16215 ft 406 kts 190°
2026-05-06 17:54 57.88166 -1.74754 15402 ft 401 kts 190°
2026-05-06 17:54 57.85411 -1.75352 14632 ft 397 kts 189°
2026-05-06 17:55 57.82683 -1.75941 13908 ft 392 kts 189°
2026-05-06 17:55 57.79987 -1.76523 13091 ft 388 kts 189°
2026-05-06 17:55 57.77318 -1.77100 12273 ft 384 kts 189°
2026-05-06 17:55 57.74678 -1.77670 11636 ft 376 kts 188°
2026-05-06 17:56 57.72182 -1.78422 11500 ft 352 kts 198°
2026-05-06 17:56 57.70026 -1.80211 11371 ft 329 kts 214°
2026-05-06 17:56 57.68241 -1.82661 11244 ft 307 kts 219°
2026-05-06 17:56 57.66588 -1.84999 11116 ft 289 kts 218°
2026-05-06 17:57 57.65015 -1.87221 10900 ft 280 kts 218°
2026-05-06 17:57 57.63471 -1.89405 10605 ft 276 kts 219°
2026-05-06 17:57 57.61949 -1.91563 10291 ft 274 kts 219°
2026-05-06 17:57 57.60444 -1.93701 9950 ft 272 kts 219°
2026-05-06 17:58 57.58940 -1.95832 9561 ft 271 kts 219°
2026-05-06 17:58 57.57444 -1.97945 9176 ft 270 kts 219°
2026-05-06 17:58 57.55947 -2.00054 8792 ft 269 kts 219°
2026-05-06 17:58 57.54458 -2.02146 8434 ft 268 kts 218°
2026-05-06 17:59 57.53000 -2.04192 8121 ft 264 kts 219°
2026-05-06 17:59 57.51534 -2.06250 7724 ft 265 kts 219°
2026-05-06 17:59 57.50067 -2.08307 7371 ft 263 kts 218°
2026-05-06 17:59 57.48609 -2.10352 6940 ft 262 kts 218°
2026-05-06 18:00 57.47158 -2.12386 6506 ft 260 kts 218°
2026-05-06 18:00 57.45714 -2.14409 6049 ft 259 kts 218°
2026-05-06 18:00 57.44290 -2.16399 5717 ft 252 kts 218°
2026-05-06 18:00 57.42908 -2.18327 5404 ft 246 kts 218°
2026-05-06 18:01 57.41554 -2.20216 5016 ft 243 kts 217°
2026-05-06 18:01 57.40200 -2.22101 4577 ft 243 kts 217°
2026-05-06 18:01 57.38865 -2.23959 4255 ft 237 kts 217°
2026-05-06 18:01 57.37563 -2.25769 4000 ft 228 kts 217°
2026-05-06 18:02 57.36319 -2.27500 3612 ft 222 kts 216°
2026-05-06 18:02 57.35058 -2.29132 3190 ft 220 kts 205°
2026-05-06 18:02 57.33614 -2.29570 2959 ft 208 kts 173°
2026-05-06 18:02 57.32294 -2.28762 2700 ft 193 kts 160°
2026-05-06 18:03 57.31104 -2.27866 2479 ft 176 kts 160°
2026-05-06 18:03 57.30016 -2.27053 2223 ft 163 kts 160°
2026-05-06 18:03 57.28982 -2.26285 2010 ft 156 kts 160°
2026-05-06 18:03 57.27982 -2.25544 1788 ft 153 kts 160°
2026-05-06 18:04 57.26994 -2.24812 1563 ft 153 kts 160°
2026-05-06 18:04 57.26012 -2.24084 1354 ft 146 kts 159°
2026-05-06 18:04 57.25100 -2.23408 1146 ft 138 kts 158°
2026-05-06 18:04 57.24220 -2.22758 950 ft 134 kts 159°
2026-05-06 18:05 57.23379 -2.22130 741 ft 126 kts 159°
2026-05-06 18:05 57.22535 -2.21503 606 ft 132 kts 159°
2026-05-06 18:05 57.21693 -2.20882 416 ft 130 kts 159°
2026-05-06 18:05 57.20851 -2.20265 233 ft 129 kts 158°
2026-05-06 18:06 57.20112 -2.19720 208 ft 99 kts 158°
2026-05-06 18:06 57.19610 -2.19347 213 ft 52 kts 158°
2026-05-06 18:06 57.19427 -2.19329 211 ft 21 kts 270°
2026-05-06 18:06 57.19530 -2.19520 211 ft 23 kts 316°
2026-05-06 18:07 57.19664 -2.19705 218 ft 26 kts 336°
2026-05-06 18:07 57.19829 -2.19837 216 ft 21 kts 336°
2026-05-06 18:07 57.19909 -2.19925 208 ft 13 kts 311°
2026-05-06 18:07 57.19960 -2.20024 208 ft 12 kts 319°
2026-05-06 18:08 57.19991 -2.20063 208 ft 8 kts 328°
2026-05-06 18:08 57.20002 -2.20147 205 ft 6 kts 246°
2026-05-06 18:08 57.19997 -2.20169 205 ft 0 kts 247°